[[{"header":{"parameterUnit":"m.s-1","parameterCategory":1,"la1":30.2992,"la2":30.254,"lo1":-89.0895,"lo2":-89.0443,"dy":0.0025,"dx":0.0025,"nx":19,"ny":19,"refTime":"2026-04-03T21:00:00:Z","depth":0,"parameterNumber":2,"parameterNumberName":"U-component_of_WINDS"},"data":[0,0,0,-5.5155,-5.5156,-5.5218,-5.5218,-5.5314,-5.5315,0,0,0,0,0,0,0,0,0,0,0,-5.5147,-5.5147,-5.5155,-5.5157,-5.5218,-5.5218,-5.5314,-5.5315,0,0,0,0,0,0,0,0,0,0,0,-5.5146,-5.5147,-5.5148,-5.5157,-5.5218,-5.5218,-5.5313,-5.5261,0,0,0,0,0,0,0,0,0,0,-5.5198,-5.52,-5.5147,-5.5149,-5.5157,-5.5218,-5.5218,-5.5258,-5.5264,-5.5293,0,-5.5321,0,-5.532,-5.5322,-5.5323,0,0,0,-5.5149,-5.5195,-5.5203,-5.5149,-5.5158,-5.5218,-5.5188,-5.5261,-5.5268,-5.5302,-5.5323,-5.5326,-5.5322,-5.5323,-5.5324,-5.5517,-5.5518,0,0,-5.5146,-5.5163,-5.5198,-5.5208,-5.5199,-5.5186,-5.519,-5.5265,-5.5289,-5.5323,-5.5328,-5.5323,-5.5324,-5.5325,-5.5515,-5.5517,0,0,0,-5.5141,-5.5161,-5.5166,-5.5205,-5.5214,-5.5188,-5.5193,-5.5286,-5.5286,-5.5329,-5.5324,-5.5324,-5.5326,-5.5514,-5.5516,-5.5593,0,0,0,-5.5139,-5.5158,-5.5165,-5.5176,-5.5213,-5.5251,-5.5212,-5.5281,-5.5289,-5.5324,-5.5325,-5.5327,-5.5513,-5.5515,-5.5587,-5.5625,0,0,0,-5.5139,-5.5158,-5.517,-5.5177,-5.5204,-5.5249,-5.5254,-5.5282,-5.5287,-5.5323,-5.5327,-5.5512,-5.5515,-5.5583,-5.5617,-5.5679,0,0,0,-5.5144,-5.5237,-5.5172,-5.5274,-5.5204,-5.5297,-5.5253,-5.5322,-5.5362,-5.5325,-5.5513,-5.5516,-5.5581,-5.5612,-5.5675,-5.5732,-5.5759,0,0,-5.527,-5.5253,-5.5312,-5.5255,-5.5364,-5.5286,-5.5408,-5.5428,-5.5416,-5.5484,-5.5489,-5.5589,-5.5617,-5.5678,-5.5907,-5.5928,0,0,0,-5.5358,-5.54,-5.5425,-5.5465,-5.5484,-5.5503,-5.5504,-5.5513,-5.557,-5.5455,-5.563,-5.5645,-5.5681,-5.5707,-5.5725,-5.5754,-5.553,-5.5529,-5.5529,-5.5557,-5.5539,-5.5635,-5.5625,-5.5665,-5.5667,-5.5697,-5.5708,-5.5677,-5.572,-5.5737,-5.5879,-5.5911,-5.5924,-5.5954,-5.577,-5.577,-5.577,-5.5771,-5.5738,-5.5794,-5.5754,-5.5833,-5.5814,-5.588,-5.5888,-5.5864,-5.5923,-5.5863,-5.5893,-5.5825,-5.5948,-5.5973,-5.5776,-5.5775,-5.5774,-5.5774,-5.5774,-5.5863,-5.5886,-5.5897,-5.5954,-5.6001,-5.5989,-5.6048,-5.603,-5.6012,-5.6043,-5.606,-5.6058,-5.6052,-5.6053,-5.6054,-5.6054,-5.6055,-5.6055,-5.6055,-5.5987,-5.5996,-5.6048,-5.608,-5.6104,-5.6134,-5.6141,-5.6164,-5.6185,-5.6167,-5.6167,-5.6131,-5.5965,-5.5921,-5.6063,-5.6061,-5.606,-5.606,-5.6059,-5.617,-5.6127,-5.6207,-5.6232,-5.6268,-5.6316,-5.6294,-5.6345,-5.6362,-5.6392,-5.6353,-5.6234,-5.6213,-5.6199,-5.6162,-5.6357,-5.6357,-5.6357,-5.6357,-5.6273,-5.6263,-5.6341,-5.6382,-5.6421,-5.641,-5.6503,-5.6511,-5.6512,-5.6522,-5.6493,-5.6445,-5.6431,-5.6419,-5.6399,-5.6365,-5.6607,-5.6607,-5.6608,-5.6384,-5.6377,-5.6458,-5.6459,-5.6488,-5.6514,-5.66,-5.665,-5.6643,-5.6617,-5.6529,-5.6519,-5.6441,-5.6417,-5.6383,-5.6354,-5.629,0,0]},{"header":{"parameterUnit":"m.s-1","parameterCategory":1,"la1":30.2992,"la2":30.254,"lo1":-89.0895,"lo2":-89.0443,"dy":0.0025,"dx":0.0025,"nx":19,"ny":19,"refTime":"2026-04-03T21:00:00:Z","depth":0,"parameterNumber":3,"parameterNumberName":"V-component_of_WINDS"},"data":[0,0,0,2.9423,2.9422,2.9388,2.9388,2.9322,2.9321,0,0,0,0,0,0,0,0,0,0,0,2.9422,2.9421,2.9423,2.9422,2.9388,2.9388,2.9322,2.9321,0,0,0,0,0,0,0,0,0,0,0,2.9422,2.9421,2.9421,2.9421,2.9388,2.9388,2.9322,2.9355,0,0,0,0,0,0,0,0,0,0,2.9392,2.9381,2.9422,2.942,2.9421,2.9388,2.9387,2.9357,2.9353,2.9329,0,2.9307,0,2.9314,2.9316,2.9316,0,0,0,2.9428,2.9384,2.9386,2.942,2.9421,2.9388,2.9405,2.9355,2.9351,2.9324,2.9307,2.9305,2.9313,2.9315,2.9315,2.9161,2.916,0,0,2.943,2.9409,2.9389,2.9382,2.9389,2.9406,2.9404,2.9353,2.9331,2.9306,2.9304,2.9311,2.9315,2.9314,2.9162,2.9161,0,0,0,2.9431,2.941,2.9413,2.9384,2.938,2.9405,2.9402,2.9334,2.9337,2.9303,2.9311,2.9314,2.9313,2.9164,2.9162,2.9091,0,0,0,2.9433,2.9411,2.9413,2.94,2.9381,2.9357,2.9384,2.934,2.9335,2.9311,2.9314,2.9313,2.9165,2.9163,2.9095,2.9059,0,0,0,2.9428,2.941,2.9402,2.9399,2.9384,2.9358,2.9359,2.9339,2.9339,2.9316,2.9312,2.9166,2.9163,2.9099,2.9066,2.9013,0,0,0,2.9415,2.9337,2.9401,2.9316,2.9384,2.9316,2.9359,2.9309,2.928,2.9314,2.9165,2.9162,2.91,2.907,2.9017,2.8963,2.8939,0,0,2.9304,2.9322,2.9275,2.9331,2.9246,2.9323,2.9227,2.9219,2.9234,2.9184,2.9181,2.9094,2.9066,2.9013,2.8817,2.8798,0,0,0,2.9232,2.9197,2.9179,2.9153,2.9148,2.914,2.915,2.9148,2.9107,2.9205,2.9062,2.9046,2.9016,2.8991,2.8975,2.895,2.915,2.9151,2.9151,2.9041,2.9069,2.8991,2.9016,2.899,2.9003,2.8984,2.8982,2.9015,2.8981,2.8965,2.8842,2.8813,2.8801,2.8774,2.894,2.894,2.894,2.894,2.8879,2.8833,2.8884,2.8827,2.8856,2.8807,2.8817,2.8843,2.88,2.8856,2.883,2.8887,2.8779,2.8757,2.8935,2.8935,2.8936,2.8937,2.8937,2.8755,2.8738,2.874,2.8707,2.8678,2.8705,2.8663,2.8691,2.8717,2.8692,2.8678,2.868,2.8683,2.8685,2.8684,2.8684,2.8683,2.8683,2.8683,2.8625,2.863,2.8592,2.8583,2.8572,2.8559,2.8574,2.8562,2.8556,2.8579,2.8579,2.8615,2.8765,2.8801,2.8676,2.8677,2.8678,2.8679,2.8679,2.8447,2.8493,2.8435,2.8423,2.8416,2.8386,2.8424,2.8398,2.8393,2.8371,2.8414,2.8521,2.854,2.8553,2.8583,2.8409,2.8409,2.8409,2.8409,2.8341,2.8356,2.8304,2.8284,2.8268,2.8298,2.823,2.8242,2.826,2.8258,2.8288,2.8331,2.8343,2.8355,2.8372,2.84,2.8185,2.8184,2.8184,2.8232,2.8247,2.8185,2.8207,2.8205,2.8201,2.8138,2.8112,2.8142,2.8176,2.8257,2.8267,2.8336,2.8358,2.8389,2.8415,2.8468,0,0]}]]